This is the latest recevied weather packets stored in our database for station/object VA3ZFM-10. If no packets are shown the sender has not sent any weather packets the latest 10 day(s).
| Time | Temp. | Humidity | Pressure | Rain* | Wind** | Luminosity | Snow |
|---|---|---|---|---|---|---|---|
| 1777728711 | 1.11° C | 93% | 1012.5 hPa | 0 mm | - | - | - |
| 1777728407 | 1.11° C | 90% | 1012.6 hPa | 1.27 mm | - | - | - |
| 1777728104 | 1.11° C | 93% | 1012.5 hPa | 1.27 mm | - | - | - |
| 1777727802 | 1.11° C | 92% | 1012.4 hPa | 0 mm | - | - | - |
| 1777727498 | 1.11° C | 91% | 1012.4 hPa | 1.78 mm | - | - | - |
| 1777727196 | 1.11° C | 92% | 1012.5 hPa | 1.27 mm | - | - | - |
| 1777726894 | 0.56° C | 91% | 1012.6 hPa | 1.27 mm | - | - | - |
| 1777726589 | 1.11° C | 93% | 1012.6 hPa | 1.78 mm | - | - | - |
| 1777726287 | 0.56° C | 92% | 1012.3 hPa | 1.78 mm | - | - | - |
| 1777725984 | 0.56° C | 92% | 1012.3 hPa | 0 mm | - | - | - |
| 1777725680 | 0.56° C | 93% | 1012.3 hPa | 0 mm | - | - | - |
| 1777725379 | 0.56° C | 92% | 1012.4 hPa | 0 mm | - | - | - |
| 1777725075 | 0.56° C | 94% | 1012.4 hPa | 0 mm | - | - | - |
| 1777724772 | 0.56° C | 94% | 1012.5 hPa | 0 mm | - | - | - |
| 1777724469 | 0.56° C | 94% | 1012.4 hPa | 0 mm | - | - | - |
| 1777724167 | 0.56° C | 95% | 1012.4 hPa | 0 mm | - | - | - |
| 1777723864 | 0.56° C | 95% | 1012.4 hPa | 0 mm | - | - | - |
| 1777723560 | 0.56° C | 95% | 1012.5 hPa | 0 mm | - | - | - |
| 1777723257 | 0° C | 96% | 1012.3 hPa | 0 mm | - | - | - |
| 1777722956 | 0° C | 96% | 1012.3 hPa | 0 mm | - | - | - |
| 1777722651 | 0° C | 97% | 1012.3 hPa | 0 mm | - | - | - |
| 1777722347 | 0° C | 98% | 1012.2 hPa | 0 mm | - | - | - |
| 1777722044 | 0° C | 98% | 1012.3 hPa | 0 mm | - | - | - |
| 1777721742 | 0° C | 98% | 1012.4 hPa | 0 mm | - | - | - |
| 1777721441 | 0° C | 98% | 1012.1 hPa | 0 mm | - | - | - |
* Rain latest hour (hover to see other rain measurements)
** Current wind speed in m/s (hover to see current wind gust speed)